This demonstration page uses our WeatherBlox Daily Observations layout. Learn more.

Left ArrowRight Arrow

Hourly Observations for April 24, 2021

Temp ( °F °C ) Dew Point ( °F °C ) Humidity (%) Winds ( mph kmh ) Pressure ( in mb ) Visibility ( mi km ) Precip ( " mm )
12:56 am 00:56 Clear 38 3.3 35 1.7 89 89 N 16 26 29.99 1016 10 16 0.00 0.00
1:27 am 01:27 Mostly Cloudy 37 3 36 2 93 93 N 12 19 30.06 1018 10 16 0.00 0.00
1:56 am 01:56 Cloudy 38 3.3 35 1.7 89 89 N 15 24 30.01 1016 10 16 0.00 0.00
2:56 am 02:56 Cloudy 39 3.9 35 1.7 86 86 NNE 8 13 30.02 1017 10 16 0.00 0.00
3:56 am 03:56 Cloudy 40 4.4 35 1.7 83 83 N 15 24 30.04 1017 10 16 0.00 0.00
4:49 am 04:49 Cloudy 39 4 34 1 81 81 N 13 20 30.11 1019 10 16 0.00 0.00
4:56 am 04:56 Cloudy 38 3.3 34 1.1 86 86 N 12 19 30.05 1018 10 16 0.00 0.00
5:05 am 05:05 Cloudy 37 3 34 1 87 87 N 13 20 30.11 1020 10 16 0.00 0.00
5:49 am 05:49 Mostly Cloudy 37 3 34 1 87 87 N 12 19 30.11 1020 10 16 0.00 0.00
5:56 am 05:56 Cloudy 38 3.3 33 0.6 83 83 N 12 19 30.05 1018 10 16 0.00 0.00
6:56 am 06:56 Cloudy 38 3.3 33 0.6 83 83 N 15 24 30.06 1018 10 16 0.00 0.00
7:56 am 07:56 Cloudy 38 3.3 33 0.6 83 83 N 15 24 30.08 1019 10 16 0.00 0.00
8:56 am 08:56 Sunny 40 4.4 32 0 73 73 N 15 24 30.09 1019 10 16 0.00 0.00
9:56 am 09:56 Partly Cloudy 42 5.6 31 -0.6 65 65 N 14 22 30.10 1019 10 16 0.00 0.00
10:56 am 10:56 Sunny 46 7.8 31 -0.6 56 56 NNE 13 20 30.09 1019 10 16 0.00 0.00
11:56 am 11:56 Sunny 47 8.3 31 -0.6 54 54 N 10 17 30.10 1019 10 16 0.00 0.00
12:56 pm 12:56 Sunny 49 9.4 31 -0.6 50 50 N 7 11 30.08 1019 10 16 0.00 0.00
1:56 pm 13:56 Sunny 52 11.1 32 0 47 47 Calm 30.05 1018 10 16 0.00 0.00
2:56 pm 14:56 Sunny 55 12.8 34 1.1 45 45 VRB 3 6 30.02 1017 10 16 0.00 0.00
3:56 pm 15:56 Sunny 56 13.3 34 1.1 44 44 Calm 29.99 1016 10 16 0.00 0.00
4:56 pm 16:56 Sunny 58 14.4 34 1.1 41 41 Calm 29.97 1015 10 16 0.00 0.00
5:56 pm 17:56 Sunny 58 14.4 36 2.2 44 44 E 6 9 29.95 1014 10 16 0.00 0.00
6:56 pm 18:56 Sunny 57 13.9 36 2.2 45 45 ESE 10 17 29.95 1014 10 16 0.00 0.00
7:56 pm 19:56 Sunny 55 12.8 37 2.8 51 51 E 8 13 29.95 1014 10 16 0.00 0.00
8:56 pm 20:56 Mostly Clear 54 12.2 37 2.8 53 53 ESE 10 17 29.94 1014 10 16 0.00 0.00
9:56 pm 21:56 Mostly Clear 53 11.7 37 2.8 55 55 ESE 10 17 29.95 1014 10 16 0.00 0.00
10:56 pm 22:56 Clear 50 10 37 2.8 61 61 ESE 10 17 29.95 1014 10 16 0.00 0.00
11:56 pm 23:56 Mostly Clear 49 9.4 36 2.2 61 61 ESE 13 20 29.93 1014 10 16 0.00 0.00

Powered by AerisWeather